[[{"header":{"parameterUnit":"m.s-1","parameterCategory":1,"la1":30.2992,"la2":30.254,"lo1":-89.0895,"lo2":-89.0443,"dy":0.0025,"dx":0.0025,"nx":19,"ny":19,"refTime":"2026-03-24T03:00:00:Z","depth":0,"parameterNumber":2,"parameterNumberName":"U-component_of_WINDS"},"data":[0,0,0,-2.4896,-2.4899,-2.5074,-2.5075,-2.5303,-2.5305,0,0,0,0,0,0,0,0,0,0,0,-2.4843,-2.4845,-2.4895,-2.49,-2.5074,-2.5075,-2.5302,-2.5305,0,0,0,0,0,0,0,0,0,0,0,-2.4842,-2.4844,-2.4846,-2.49,-2.5074,-2.5075,-2.5302,-2.517,0,0,0,0,0,0,0,0,0,0,-2.5,-2.4949,-2.4844,-2.4846,-2.4901,-2.5073,-2.5075,-2.5163,-2.5178,-2.5225,0,-2.5263,0,-2.5287,-2.532,-2.5321,0,0,0,-2.4902,-2.4937,-2.4984,-2.4846,-2.4903,-2.5073,-2.4996,-2.5171,-2.5188,-2.5244,-2.5266,-2.5274,-2.5291,-2.5322,-2.5323,-2.5581,-2.5582,0,0,-2.4892,-2.4875,-2.4973,-2.4995,-2.4964,-2.499,-2.5001,-2.5181,-2.5205,-2.5267,-2.528,-2.5295,-2.5323,-2.5325,-2.558,-2.5581,0,0,0,-2.4863,-2.4868,-2.4911,-2.4986,-2.5016,-2.4995,-2.5008,-2.5197,-2.5213,-2.5282,-2.5297,-2.5324,-2.5327,-2.5578,-2.558,-2.562,0,0,0,-2.4857,-2.4851,-2.4907,-2.4898,-2.5013,-2.5108,-2.502,-2.52,-2.5221,-2.5296,-2.5325,-2.5329,-2.5577,-2.5579,-2.5616,-2.5643,0,0,0,-2.4832,-2.4848,-2.4873,-2.4897,-2.4971,-2.5106,-2.5131,-2.5205,-2.523,-2.5321,-2.533,-2.5576,-2.5579,-2.5613,-2.5637,-2.5708,0,0,0,-2.4802,-2.4905,-2.4873,-2.4996,-2.4969,-2.5127,-2.513,-2.5249,-2.5331,-2.5326,-2.5577,-2.558,-2.5611,-2.5634,-2.5704,-2.5766,-2.5788,0,0,-2.4924,-2.492,-2.4993,-2.4969,-2.5128,-2.5102,-2.5268,-2.5361,-2.5387,-2.5516,-2.5522,-2.5617,-2.5637,-2.5707,-2.5919,-2.5937,0,0,0,-2.5027,-2.508,-2.5125,-2.5201,-2.5273,-2.5338,-2.5407,-2.5442,-2.5552,-2.5448,-2.5661,-2.5673,-2.5715,-2.5746,-2.5761,-2.58,-2.5592,-2.5592,-2.5592,-2.5177,-2.5202,-2.5327,-2.5374,-2.5448,-2.5518,-2.5583,-2.5642,-2.5647,-2.5697,-2.5736,-2.5862,-2.5897,-2.5908,-2.5949,-2.5768,-2.5769,-2.5769,-2.5769,-2.5361,-2.5442,-2.5445,-2.5567,-2.5595,-2.5699,-2.5772,-2.5772,-2.5877,-2.5833,-2.5872,-2.5825,-2.5927,-2.5964,-2.5772,-2.5772,-2.5771,-2.5771,-2.5771,-2.5465,-2.5508,-2.5547,-2.5661,-2.5748,-2.5792,-2.5892,-2.5914,-2.5935,-2.5973,-2.602,-2.6019,-2.6024,-2.5993,-2.5993,-2.5994,-2.5994,-2.5994,-2.5995,-2.5559,-2.5601,-2.5681,-2.5766,-2.5819,-2.5892,-2.5965,-2.6019,-2.6086,-2.6094,-2.6095,-2.6098,-2.5931,-2.589,-2.6002,-2.6001,-2.6,-2.5999,-2.5998,-2.5742,-2.5704,-2.5827,-2.588,-2.5984,-2.607,-2.6095,-2.6205,-2.6253,-2.6303,-2.6297,-2.6169,-2.6168,-2.6156,-2.6123,-2.6288,-2.6288,-2.6288,-2.6288,-2.5832,-2.5832,-2.5964,-2.6048,-2.6133,-2.6169,-2.6313,-2.6372,-2.6427,-2.646,-2.6438,-2.6395,-2.6382,-2.6389,-2.6372,-2.6342,-2.6559,-2.656,-2.656,-2.5948,-2.5957,-2.6073,-2.6123,-2.6207,-2.6279,-2.6416,-2.6517,-2.6572,-2.6571,-2.6487,-2.6476,-2.6406,-2.6382,-2.6381,-2.6354,-2.6299,0,0]},{"header":{"parameterUnit":"m.s-1","parameterCategory":1,"la1":30.2992,"la2":30.254,"lo1":-89.0895,"lo2":-89.0443,"dy":0.0025,"dx":0.0025,"nx":19,"ny":19,"refTime":"2026-03-24T03:00:00:Z","depth":0,"parameterNumber":3,"parameterNumberName":"V-component_of_WINDS"},"data":[0,0,0,-3.1996,-3.1999,-3.2131,-3.2131,-3.2292,-3.2293,0,0,0,0,0,0,0,0,0,0,0,-3.1951,-3.1952,-3.1996,-3.1999,-3.213,-3.2131,-3.2291,-3.2293,0,0,0,0,0,0,0,0,0,0,0,-3.1951,-3.1952,-3.1953,-3.1999,-3.213,-3.2131,-3.2291,-3.2195,0,0,0,0,0,0,0,0,0,0,-3.2068,-3.202,-3.1951,-3.1953,-3.2,-3.213,-3.2131,-3.219,-3.2201,-3.2228,0,-3.225,0,-3.2274,-3.2303,-3.2304,0,0,0,-3.2004,-3.2012,-3.2053,-3.1953,-3.2001,-3.213,-3.2073,-3.2196,-3.2208,-3.2242,-3.2252,-3.2258,-3.2276,-3.2304,-3.2305,-3.2444,-3.2444,0,0,-3.1997,-3.1972,-3.2044,-3.206,-3.2038,-3.2068,-3.2077,-3.2204,-3.2213,-3.2253,-3.2262,-3.2279,-3.2305,-3.2306,-3.2444,-3.2444,0,0,0,-3.1972,-3.1966,-3.2004,-3.2053,-3.2077,-3.2072,-3.2082,-3.2208,-3.2222,-3.2264,-3.2281,-3.2306,-3.2308,-3.2443,-3.2444,-3.244,0,0,0,-3.1968,-3.1952,-3.2001,-3.1987,-3.2075,-3.2144,-3.2083,-3.2213,-3.2229,-3.228,-3.2306,-3.2309,-3.2443,-3.2444,-3.2439,-3.2442,0,0,0,-3.1945,-3.195,-3.1966,-3.1985,-3.2041,-3.2142,-3.2164,-3.2217,-3.2239,-3.2304,-3.231,-3.2443,-3.2443,-3.2438,-3.2441,-3.2472,0,0,0,-3.1912,-3.1962,-3.1966,-3.2028,-3.204,-3.2139,-3.2164,-3.2239,-3.2295,-3.2307,-3.2443,-3.2444,-3.2438,-3.2441,-3.2471,-3.2493,-3.2499,0,0,-3.1961,-3.1966,-3.2005,-3.2013,-3.2104,-3.2121,-3.2213,-3.2288,-3.2317,-3.24,-3.2404,-3.2439,-3.2441,-3.2472,-3.2546,-3.2552,0,0,0,-3.2012,-3.2039,-3.2069,-3.212,-3.2178,-3.2228,-3.2291,-3.2319,-3.2391,-3.2354,-3.246,-3.2462,-3.248,-3.2492,-3.2497,-3.2515,-3.2448,-3.2448,-3.2448,-3.2044,-3.2079,-3.2145,-3.2196,-3.2245,-3.231,-3.2354,-3.2403,-3.2424,-3.2448,-3.2473,-3.2514,-3.2527,-3.253,-3.2548,-3.2488,-3.2488,-3.2488,-3.2488,-3.2119,-3.2163,-3.2189,-3.2263,-3.23,-3.2363,-3.2428,-3.244,-3.2505,-3.2498,-3.2516,-3.2506,-3.2535,-3.2553,-3.2488,-3.2488,-3.2488,-3.2488,-3.2488,-3.2143,-3.2171,-3.2203,-3.2281,-3.2338,-3.2388,-3.2449,-3.2481,-3.2511,-3.2529,-3.2559,-3.2559,-3.2563,-3.2541,-3.2541,-3.2542,-3.2542,-3.2542,-3.2542,-3.2156,-3.2193,-3.224,-3.2306,-3.2343,-3.2396,-3.2463,-3.2501,-3.2552,-3.257,-3.257,-3.2589,-3.2531,-3.2515,-3.2544,-3.2544,-3.2544,-3.2543,-3.2543,-3.2218,-3.2209,-3.2281,-3.2318,-3.2399,-3.2453,-3.2493,-3.2568,-3.2604,-3.2633,-3.2649,-3.2601,-3.2609,-3.2606,-3.2593,-3.2641,-3.2641,-3.2641,-3.2641,-3.2238,-3.2246,-3.2327,-3.2385,-3.2445,-3.2489,-3.257,-3.2623,-3.2676,-3.2701,-3.2699,-3.2685,-3.268,-3.2692,-3.2687,-3.2676,-3.2743,-3.2743,-3.2743,-3.2278,-3.2293,-3.2356,-3.2407,-3.2472,-3.2528,-3.2606,-3.2673,-3.2731,-3.2748,-3.2721,-3.2717,-3.2695,-3.2686,-3.2701,-3.2692,-3.2673,0,0]}]]